Weather History for Tampa Macdill AFB, FL

Change the Weather History Date:

Tuesday, August 27, 2013

  Actual Average Record
Temperature  
Mean Temperature 82 °F -  
Max Temperature 91 °F 88 °F 93 °F (1996)
Min Temperature 73 °F 73 °F 68 °F (2002)
Cooling Degree Days 17    
Growing Degree Days 32 (Base 50)    
Moisture  
Dew Point 75 °F    
Average Humidity 87    
Maximum Humidity 100    
Minimum Humidity 54    
Precipitation  
Precipitation 0.40 in - - ()
Sea Level Pressure  
Sea Level Pressure 30.03 in    
Wind  
Wind Speed 8 mph (East)    
Max Wind Speed 21 mph    
Max Gust Speed 26 mph    
Visibility 10 miles    
Events Rain , Thunderstorm    
Averages and records for this station are not official NWS values.
T = Trace of Precipitation, MM = Missing Value Source: NWS Daily Summary

Daily Weather History Graph

Daily Weather History Graph

Search for Another Location

Airport:

Trip Planner

Search our weather history database for the weather conditions in past years. The results will help you decide how hot, cold, wet, or windy it might be!

Date:

Astronomy

Aug. 27, 2013 Rise Set
Actual Time 7:06 AM EDT 7:56 PM EDT
Civil Twilight 6:42 AM EDT 8:20 PM EDT
Nautical Twilight 6:14 AM EDT 8:48 PM EDT
Astronomical Twilight 5:45 AM EDT 9:17 PM EDT
Moon No Moon Rise 1:25 PM EDT (8/27)
Length of Visible Light 13h 37m
Length of Day
12h 49m
Waning Gibbous, 57% of the Moon is Illuminated
Aug 27
Waning Gibbous
Aug 28
Last Quarter
Sep 5
New
Sep 12
First Quarter
Sep 19
Full

Hourly Weather History & Observations

Time (EDT) Temp. Heat Index Dew Point Humidity Pressure Visibility Wind Dir Wind Speed Gust Speed Precip Events Conditions
12:58 AM 74.5 °F - 74.5 °F 100% 30.06 in 10.0 mi East 8.1 mph - N/A   Clear
1:58 AM 74.7 °F - 74.7 °F 100% 30.05 in 10.0 mi ENE 6.9 mph - N/A   Clear
2:58 AM 75.0 °F - 75.0 °F 100% 30.04 in 10.0 mi East 6.9 mph - N/A   Clear
3:58 AM 73.8 °F - 73.8 °F 100% 30.03 in 10.0 mi ENE 3.5 mph - N/A   Clear
4:58 AM 73.4 °F - 73.4 °F 100% 30.02 in 10.0 mi ENE 6.9 mph - N/A   Clear
5:58 AM 73.6 °F - 73.6 °F 100% 30.03 in 10.0 mi ENE 6.9 mph - N/A   Clear
6:58 AM 73.9 °F - 73.9 °F 100% 30.04 in 10.0 mi ENE 8.1 mph - N/A   Clear
7:58 AM 74.8 °F - 74.8 °F 100% 30.04 in 10.0 mi ENE 10.4 mph - N/A   Scattered Clouds
8:08 AM 75.2 °F - 75.2 °F 100% 30.04 in 10.0 mi ENE 11.5 mph - N/A   Mostly Cloudy
8:13 AM 75.2 °F - 75.2 °F 100% 30.04 in 10.0 mi ENE 12.7 mph - N/A   Scattered Clouds
8:58 AM 77.5 °F - 77.5 °F 100% 30.06 in 10.0 mi ENE 9.2 mph - N/A   Clear
9:58 AM 81.3 °F 88.5 °F 76.8 °F 86% 30.06 in 10.0 mi East 8.1 mph - N/A   Clear
10:43 AM 82.4 °F 90.9 °F 77.0 °F 84% 30.07 in 10.0 mi East 9.2 mph - N/A   Mostly Cloudy
10:58 AM 83.3 °F 92.4 °F 76.8 °F 81% 30.08 in 10.0 mi East 11.5 mph - N/A   Mostly Cloudy
11:13 AM 84.2 °F 94.1 °F 77.0 °F 79% 30.06 in 10.0 mi East 11.5 mph - N/A   Scattered Clouds
11:58 AM 86.2 °F 96.9 °F 76.6 °F 73% 30.06 in 10.0 mi East 10.4 mph - N/A   Partly Cloudy
12:58 PM 87.6 °F 97.6 °F 75.4 °F 67% 30.05 in 10.0 mi East 11.5 mph - N/A   Partly Cloudy
1:58 PM 89.2 °F 99.0 °F 74.5 °F 62% 30.03 in 10.0 mi East 12.7 mph 18.4 mph N/A   Partly Cloudy
2:33 PM 89.6 °F 99.8 °F 75.2 °F 62% 30.01 in 10.0 mi ESE 12.7 mph - N/A   Clear
2:58 PM 89.8 °F 98.6 °F 73.9 °F 59% 30.01 in 10.0 mi ESE 10.4 mph 18.4 mph N/A   Clear
3:58 PM 91.0 °F 98.7 °F 72.1 °F 54% 30.00 in 10.0 mi East 9.2 mph - N/A   Clear
4:58 PM 90.5 °F 97.5 °F 71.6 °F 54% 29.99 in 10.0 mi ESE 9.2 mph - N/A   Clear
5:58 PM 87.3 °F 98.8 °F 77.0 °F 71% 30.00 in 10.0 mi SW 20.7 mph 26.5 mph N/A   Scattered Clouds
6:48 PM 82.4 °F 90.9 °F 77.0 °F 84% 29.99 in 10.0 mi SW 15.0 mph - N/A Thunderstorm Thunderstorm
6:58 PM 80.6 °F 87.1 °F 77.0 °F 89% 30.00 in 10.0 mi WSW 11.5 mph - N/A Thunderstorm Thunderstorm
7:10 PM 80.6 °F 86.2 °F 75.2 °F 84% 30.00 in 10.0 mi SW 8.1 mph - N/A   Mostly Cloudy
7:58 PM 80.2 °F 85.4 °F 75.0 °F 84% 30.01 in 10.0 mi WSW 8.1 mph - N/A   Overcast
8:58 PM 79.2 °F - 75.2 °F 88% 30.02 in 10.0 mi NW 3.5 mph - N/A   Clear
9:58 PM 77.9 °F - 75.6 °F 92% 30.04 in 10.0 mi NNE 3.5 mph - N/A   Mostly Cloudy
10:05 PM 78.8 °F - 77.0 °F 94% 30.04 in 10.0 mi North 2.3 mph - N/A Rain Light Rain
10:40 PM 75.2 °F - 75.2 °F 100% 30.05 in 10.0 mi WSW 6.9 mph - N/A Rain Heavy Rain
10:50 PM 75.2 °F - 75.2 °F 100% 30.05 in 10.0 mi SW 4.6 mph - N/A   Scattered Clouds
10:58 PM 75.2 °F - 75.2 °F 100% 30.06 in 10.0 mi SSW 3.5 mph - 0.40 in   Scattered Clouds
11:58 PM 75.0 °F - 74.1 °F 97% 30.05 in 10.0 mi NNE 1.2 mph - N/A   Clear